TimeCET,TemperatureF,Dew PointF,Humidity,Sea Level PressureIn,VisibilityMPH,Wind Direction,Wind SpeedMPH,Gust SpeedMPH,PrecipitationIn,Events,Conditions,WindDirDegrees,DateUTC
12:55 AM,23.0,-22.0,13,29.95,-9999.0,South,8.1,-,N/A,,Clear,190,2012-11-17 23:55:00
1:00 AM,23,-22,4,,6,South,8.1,,,,,190,2012-11-18 00:00:00
1:55 AM,23.0,-20.2,14,29.92,-9999.0,South,4.6,-,N/A,,Clear,190,2012-11-18 00:55:00
2:55 AM,23.0,-20.2,14,29.95,-9999.0,South,6.9,-,N/A,,Clear,190,2012-11-18 01:55:00
3:55 AM,23.0,-20.2,14,29.92,-9999.0,SSW,5.8,-,N/A,,Clear,200,2012-11-18 02:55:00
4:00 AM,22,-20,5,,6,SSW,5.8,,,,,200,2012-11-18 03:00:00
4:55 AM,23.0,-14.8,18,29.92,-9999.0,SSW,5.8,-,N/A,,Clear,200,2012-11-18 03:55:00
5:55 AM,23.0,-14.8,18,29.92,-9999.0,SSW,5.8,-,N/A,,Clear,200,2012-11-18 04:55:00
6:55 AM,23.0,-14.8,18,29.92,-9999.0,South,5.8,-,N/A,,Clear,190,2012-11-18 05:55:00
7:00 AM,23,-15,7,,6,South,5.8,,,,,190,2012-11-18 06:00:00
7:55 AM,23.0,-16.6,17,29.92,-9999.0,SSE,3.5,-,N/A,,Clear,150,2012-11-18 06:55:00
8:55 AM,24.8,-16.6,16,29.92,-9999.0,South,3.5,-,N/A,,Clear,190,2012-11-18 07:55:00
9:55 AM,24.8,-16.6,16,29.95,-9999.0,SSW,5.8,-,N/A,,Clear,200,2012-11-18 08:55:00
10:00 AM,25,-18,5,,31,SSW,5.8,,,,Clear,200,2012-11-18 09:00:00
10:55 AM,26.6,-14.8,16,29.95,-9999.0,SSW,6.9,-,N/A,,Clear,210,2012-11-18 09:55:00
11:55 AM,26.6,-14.8,16,29.92,-9999.0,SSW,8.1,-,N/A,,Clear,210,2012-11-18 10:55:00
12:55 PM,24.8,-13.0,19,29.92,-9999.0,SSW,4.6,-,N/A,,Clear,200,2012-11-18 11:55:00
1:00 PM,25,-14,7,,31,SSW,4.6,,,,Clear,200,2012-11-18 12:00:00
1:55 PM,24.8,-18.4,14,29.92,-9999.0,Variable,3.5,-,N/A,,Clear,0,2012-11-18 12:55:00
2:55 PM,26.6,-18.4,13,29.92,-9999.0,Variable,1.2,-,N/A,,Clear,0,2012-11-18 13:55:00
3:55 PM,26.6,-16.6,14,29.92,-9999.0,Variable,2.3,-,N/A,,Clear,0,2012-11-18 14:55:00
4:00 PM,27,-16,5,,31,,2.3,,,,Clear,,2012-11-18 15:00:00
4:55 PM,24.8,-18.4,14,29.92,-9999.0,Calm,Calm,-,N/A,,Clear,0,2012-11-18 15:55:00
5:55 PM,23.0,-18.4,15,29.95,-9999.0,Variable,1.2,-,N/A,,Clear,0,2012-11-18 16:55:00
6:55 PM,23.0,-20.2,14,29.95,-9999.0,Variable,1.2,-,N/A,,Clear,0,2012-11-18 17:55:00
7:00 PM,23,-21,4,,6,,1.2,,,,,,2012-11-18 18:00:00
7:55 PM,23.0,-20.2,14,29.95,-9999.0,Calm,Calm,-,N/A,,Clear,0,2012-11-18 18:55:00
8:55 PM,23.0,-20.2,14,29.98,-9999.0,SSW,3.5,-,N/A,,Clear,210,2012-11-18 19:55:00
9:55 PM,23.0,-20.2,14,29.98,-9999.0,NE,2.3,-,N/A,,Clear,40,2012-11-18 20:55:00
10:00 PM,23,-19,5,,6,NE,2.3,,,,,40,2012-11-18 21:00:00
10:55 PM,23.0,-20.2,14,29.98,-9999.0,ENE,4.6,-,N/A,,Clear,60,2012-11-18 21:55:00
11:55 PM,23.0,-22.0,13,29.98,-9999.0,South,4.6,-,N/A,,Clear,190,2012-11-18 22:55:00